GORIZONT 9 (14940 NORAD) Tracking and Keplerian Element Data

This shows tracking and keplerian element data for the satellite.

Feedback or suggestion? Click here.




ElementValue
Catalog14940
NameGORIZONT 9
Epoch Orbit12014
Epoch Day353.92318655
Epoch Year2025
RAAN313.479
Inclination9.0879
Eccentricity0.0006641
Argument of Perigee288.4735
Mean Anonmoly249.4062
Mean Motion1.00320842
Decay Rate-3.4E-07
L11 14940U 84041A 25353.92318655 -.00000034 00000+0 00000+0 0 9998
L22 14940 9.0879 313.4790 0006641 288.4735 249.4062 1.00320842120149



Live tracking and technical data element details for GORIZONT 9 (NORAD 14940). GORIZONT 9 can be tracked NOW for your location showing map with azimuth and elevation plus other details from your city location.







IsCatalogInMostPopularTable: catalog: 14940, numindb: 350
Update: records affected: 1



GetName: 14940 GORIZONT 9

Hit Count: updated at: Sat, 07 Mar 2026 07:01:10 GMT